This demonstration page uses our WeatherBlox Daily Observations layout. Learn more.

38.88101, -77.10428

Hourly Observations for October 5, 2017

Temp ( °F °C ) Dew Point ( °F °C ) Humidity (%) Winds ( mph kmh ) Pressure ( in mb ) Visibility ( mi km ) Precip ( " mm )
12:52 am 00:52 Clear 63 17.2 58 14.4 84 84 SSW 7 11 30.26 1025 10 16.0934 0 0
1:52 am 01:52 Clear 62 16.7 57 13.9 84 84 S 8 13 30.25 1024 10 16.0934 0 0
2:52 am 02:52 Clear 61 16.1 57 13.9 87 87 SW 6 9 30.23 1024 10 16.0934 0 0
3:18 am 03:18 Partly Cloudy 60 15.6 56 13.3 86 86 S 7 11 30.21 1023 10 16.0934 0 0
3:52 am 03:52 Partly Cloudy 61 16.1 56 13.3 84 84 S 10 17 30.21 1023 10 16.0934 0 0
4:52 am 04:52 Partly Cloudy 60 15.6 55 12.8 84 84 SSW 8 13 30.22 1023 10 16.0934 0 0
5:32 am 05:32 Mostly Clear 60 15.6 54 12.2 80 80 SSW 7 11 30.21 1023 10 16.0934 0 0
5:52 am 05:52 Mostly Clear 60 15.6 54 12.2 80 80 SSW 8 13 30.22 1023 10 16.0934 0 0
6:52 am 06:52 Partly Cloudy 59 15 54 12.2 83 83 SW 5 7 30.22 1023 10 16.0934 0 0
7:52 am 07:52 Partly Cloudy 61 16.1 55 12.8 81 81 SW 3 6 30.23 1024 10 16.0934 0 0
8:52 am 08:52 Mostly Cloudy 64 17.8 56 13.3 75 75 SSW 5 7 30.23 1024 10 16.0934 0 0
9:52 am 09:52 Mostly Cloudy 67 19.4 57 13.9 71 71 S 7 11 30.22 1024 10 16.0934 0 0
10:52 am 10:52 Mostly Cloudy 69 20.6 59 15 70 70 SSE 9 15 30.22 1023 10 16.0934 0 0
11:52 am 11:52 Cloudy 72 22.2 60 15.6 66 66 S 9 15 30.2 1023 10 16.0934 0 0
12:52 pm 12:52 Cloudy 76 24.4 61 16.1 60 60 S 12 19 30.17 1022 10 16.0934 0 0
1:52 pm 13:52 Cloudy 80 26.7 57 13.9 45 45 SSW 7 11 30.16 1021 10 16.0934 0 0
2:52 pm 14:52 Mostly Cloudy 79 26.1 64 17.8 60 60 S 13 20 30.14 1021 10 16.0934 0 0
3:52 pm 15:52 Mostly Cloudy 79 26.1 65 18.3 62 62 S 12 19 30.13 1020 10 16.0934 0 0
4:52 pm 16:52 Mostly Cloudy 80 26.7 64 17.8 58 58 S 12 19 30.12 1020 10 16.0934 0 0
5:52 pm 17:52 Mostly Cloudy 76 24.4 65 18.3 69 69 S 8 13 30.11 1020 10 16.0934 0 0
6:52 pm 18:52 Mostly Cloudy 74 23.3 65 18.3 74 74 S 7 11 30.11 1020 10 16.0934 0 0
7:52 pm 19:52 Mostly Cloudy 73 22.8 63 17.2 71 71 S 7 11 30.11 1020 10 16.0934 0 0
8:52 pm 20:52 Cloudy 73 22.8 64 17.8 74 74 S 5 7 30.12 1020 10 16.0934 0 0
9:52 pm 21:52 Cloudy 72 22.2 63 17.2 73 73 S 5 7 30.13 1020 10 16.0934 0 0
10:52 pm 22:52 Mostly Cloudy 71 21.7 65 18.3 81 81 S 5 7 30.12 1020 10 16.0934 0 0
11:52 pm 23:52 Clear 70 21.1 65 18.3 84 84 Calm 30.12 1020 10 16.0934 0 0

Powered by AerisWeather